Hourly Data Report for October 23, 2015

All times are specified in Local Standard Time (LST). Add 1 hour to adjust for Daylight Saving Time where and when it is observed.

KUGAARUK CLIMATE
NUNAVUT

68°32'15.060" N
89°47'47.020" W
15.80 m
2303094
71407
NBB

Download Data

Hourly Data (October 2015)
Hourly Data Report for October 23, 2015
Temp Definition
°C
Dew Point Temp Definition
°C
Rel Hum Definition
%
Wind Dir Definition
10's deg

Wind Spd Definition
km/h
Visibility Definition
km
Stn Press Definition
kPa
Hmdx Definition


Wind Chill Definition


Weather Definition


TIME
00:00 -11.7 -13.4 87 7 6   100.57   -15 LegendNANA
01:00 -11.3 -12.9 88 8 7   100.51   -16 LegendNANA
02:00 -10.8 -12.3 89 10 5   100.45   -14 LegendNANA
03:00 -10.7 -12.2 89 2 12   100.38   -17 LegendNANA
04:00 -10.7 -12.3 88 2 12   100.33   -17 LegendNANA
05:00 -11.0 -12.6 88 2 15   100.28   -18 LegendNANA
06:00 -11.2 -12.7 88 3 17   100.24   -19 LegendNANA
07:00 -11.9 -13.5 88 5 11   100.23   -18 LegendNANA
08:00 -11.8 -13.6 87 5 14   100.21   -19 LegendNANA
09:00 -11.8 -13.7 86 3 21   100.19   -20 LegendNANA
10:00 -12.0 -13.9 86 2 23   100.21   -21 LegendNANA
11:00 -11.8 -13.8 85 5 22   100.21   -21 LegendNANA
12:00 -11.5 -13.7 84 5 31   100.19   -22 LegendNANA
13:00 -11.3 -13.4 85 4 28   100.24   -21 LegendNANA
14:00 -11.1 -13.2 84 3 28   100.28   -21 LegendNANA
15:00 -11.1 -13.8 81 6 16   100.30   -18 LegendNANA
16:00 -10.8 -13.2 82 2 25   100.34   -20 LegendNANA
17:00 -11.3 -15.0 74 1 30   100.38   -21 LegendNANA
18:00 -11.5 -14.3 80 1 30   100.40   -21 LegendNANA
19:00 -12.5 -15.8 76 35 20   100.45   -21 LegendNANA
20:00 -12.8 -15.8 78 35 27   100.45   -23 LegendNANA
21:00 -13.3 -16.8 75 35 21   100.46   -22 LegendNANA
22:00 -14.1 -17.0 79 34 27   100.48   -24 LegendNANA
23:00 -14.2 -16.2 85 33 30   100.47   -25 LegendNANA

Notes on Data Quality.

Legend

  • E = Estimated
  • M = Missing
  • NA = Not Available
  • ‡ = Partner data that is not subject to review by the National Climate Archives
Date modified: